• In Hungary
  • List of Countries
  • For 7 days
  • Water Temperature
  • Satellite Maps
  • Weather Map
  • News
  • Weather Widgets
  • user-avatar
    Login

    Hourly Weather Biancavilla

    Today, 19 January, Friday

    Time Temperature Precipitation Wind Pressure Humidity
    00:00 +6°C° 0 mm 2 mps 717 mmHg 65%
    01:00 +6°C° 0 mm 2 mps 717 mmHg 69%
    02:00 +5°C° 0 mm 2 mps 716 mmHg 71%
    03:00 +5°C° 0 mm 2 mps 716 mmHg 73%
    04:00 +5°C° 0 mm 2 mps 716 mmHg 75%
    05:00 +5°C° 0 mm 2 mps 716 mmHg 76%
    06:00 +5°C° 0 mm 2 mps 715 mmHg 76%
    07:00 +5°C° 0 mm 2 mps 715 mmHg 77%
    08:00 +7°C° 0 mm 2 mps 715 mmHg 71%
    09:00 +9°C° 0 mm 2 mps 716 mmHg 65%
    10:00 +12°C° 0 mm 2 mps 716 mmHg 58%
    11:00 +13°C° 0 mm 2 mps 716 mmHg 56%
    12:00 +14°C° 0 mm 2 mps 715 mmHg 54%
    13:00 +14°C° 0 mm 3 mps 715 mmHg 53%
    14:00 +13°C° 0 mm 3 mps 715 mmHg 57%
    15:00 +13°C° 0 mm 3 mps 714 mmHg 61%
    16:00 +12°C° 0 mm 3 mps 714 mmHg 65%
    17:00 +10°C° 0 mm 3 mps 714 mmHg 71%
    18:00 +9°C° 0 mm 3 mps 714 mmHg 78%
    19:00 +7°C° 0 mm 2 mps 713 mmHg 85%
    20:00 +7°C° 0 mm 2 mps 713 mmHg 85%
    21:00 +7°C° 0 mm 2 mps 713 mmHg 85%
    22:00 +7°C° 0 mm 2 mps 713 mmHg 85%
    23:00 +7°C° 0 mm 2 mps 713 mmHg 85%

    Tomorrow, 20 January, Saturday

    Time Temperature Precipitation Wind Pressure Humidity
    00:00 +7°C° 0 mm 2 mps 713 mmHg 85%
    01:00 +7°C° 0 mm 2 mps 713 mmHg 85%
    02:00 +7°C° 0 mm 2 mps 713 mmHg 84%
    03:00 +7°C° 0 mm 2 mps 712 mmHg 84%
    04:00 +8°C° 0 mm 1 mps 712 mmHg 83%
    05:00 +8°C° 0 mm 1 mps 712 mmHg 83%
    06:00 +8°C° 0 mm 1 mps 712 mmHg 83%
    07:00 +7°C° 0 mm 1 mps 712 mmHg 84%
    08:00 +9°C° 0 mm 1 mps 712 mmHg 77%
    09:00 +10°C° 0 mm 1 mps 713 mmHg 70%
    10:00 +12°C° 0 mm 2 mps 713 mmHg 64%
    11:00 +12°C° 0 mm 2 mps 713 mmHg 61%
    12:00 +13°C° 0 mm 2 mps 713 mmHg 58%
    13:00 +14°C° 0 mm 2 mps 712 mmHg 55%
    14:00 +13°C° 0 mm 2 mps 712 mmHg 57%
    15:00 +13°C° 0 mm 2 mps 712 mmHg 59%
    16:00 +12°C° 0 mm 2 mps 712 mmHg 61%
    17:00 +10°C° 0 mm 2 mps 712 mmHg 67%
    18:00 +8°C° 0 mm 3 mps 712 mmHg 74%
    19:00 +7°C° 0 mm 3 mps 712 mmHg 80%
    20:00 +5°C° 0 mm 3 mps 712 mmHg 81%
    21:00 +6°C° 0 mm 2 mps 712 mmHg 82%
    22:00 +6°C° 0 mm 2 mps 712 mmHg 83%
    23:00 +6°C° 0 mm 2 mps 712 mmHg 83%

    Day after tomorrow, 21 January, Sunday

    Time Temperature Precipitation Wind Pressure Humidity
    00:00 +5°C° 0 mm 2 mps 712 mmHg 83%
    01:00 +5°C° 0 mm 2 mps 712 mmHg 84%
    02:00 +5°C° 0 mm 2 mps 712 mmHg 84%
    03:00 +5°C° 0 mm 2 mps 711 mmHg 84%
    04:00 +5°C° 0 mm 2 mps 711 mmHg 84%
    05:00 +5°C° 0 mm 2 mps 711 mmHg 83%
    06:00 +5°C° 0 mm 2 mps 710 mmHg 83%
    07:00 +5°C° 0 mm 2 mps 710 mmHg 83%
    08:00 +5°C° 0 mm 3 mps 710 mmHg 80%
    09:00 +8°C° 0 mm 3 mps 710 mmHg 76%
    10:00 +9°C° 0 mm 3 mps 710 mmHg 73%
    11:00 +10°C° 0.1 mm 4 mps 710 mmHg 72%
    12:00 +10°C° 0.1 mm 5 mps 710 mmHg 71%
    13:00 +12°C° 0.1 mm 5 mps 709 mmHg 70%
    14:00 +12°C° 0 mm 5 mps 709 mmHg 70%
    15:00 +12°C° 0 mm 5 mps 709 mmHg 70%
    16:00 +12°C° 0 mm 5 mps 709 mmHg 70%
    17:00 +11°C° 0 mm 4 mps 709 mmHg 75%
    18:00 +10°C° 0 mm 4 mps 710 mmHg 80%
    19:00 +9°C° 0 mm 3 mps 710 mmHg 85%
    20:00 +8°C° 0 mm 3 mps 711 mmHg 86%
    21:00 +8°C° 0 mm 3 mps 711 mmHg 87%
    22:00 +7°C° 0 mm 2 mps 711 mmHg 88%
    23:00 +7°C° 0 mm 2 mps 712 mmHg 88%

    22 January, Monday

    Time Temperature Precipitation Wind Pressure Humidity
    00:00 +7°C° 0 mm 2 mps 712 mmHg 88%
    01:00 +7°C° 0 mm 2 mps 712 mmHg 88%
    02:00 +7°C° 0 mm 2 mps 712 mmHg 88%
    03:00 +7°C° 0 mm 2 mps 712 mmHg 88%
    04:00 +7°C° 0 mm 2 mps 712 mmHg 88%
    05:00 +7°C° 0 mm 2 mps 712 mmHg 88%
    06:00 +7°C° 0 mm 2 mps 712 mmHg 87%
    07:00 +7°C° 0 mm 2 mps 713 mmHg 87%
    08:00 +9°C° 0 mm 2 mps 713 mmHg 79%
    09:00 +12°C° 0 mm 1 mps 714 mmHg 71%
    10:00 +14°C° 0 mm 1 mps 715 mmHg 64%
    11:00 +15°C° 0 mm 1 mps 715 mmHg 61%
    12:00 +15°C° 0 mm 2 mps 715 mmHg 58%
    13:00 +16°C° 0 mm 2 mps 715 mmHg 56%
    14:00 +16°C° 0 mm 2 mps 715 mmHg 59%
    15:00 +15°C° 0 mm 2 mps 715 mmHg 63%
    16:00 +15°C° 0 mm 2 mps 715 mmHg 67%
    17:00 +13°C° 0 mm 2 mps 715 mmHg 74%
    18:00 +11°C° 0 mm 1 mps 715 mmHg 81%
    19:00 +10°C° 0 mm 1 mps 715 mmHg 88%
    20:00 +10°C° 0 mm 1 mps 715 mmHg 88%
    21:00 +9°C° 0 mm 1 mps 716 mmHg 88%
    22:00 +9°C° 0 mm 1 mps 716 mmHg 87%
    23:00 +9°C° 0 mm 1 mps 716 mmHg 87%

    23 January, Tuesday

    Time Temperature Precipitation Wind Pressure Humidity
    00:00 +9°C° 0 mm 1 mps 715 mmHg 86%
    01:00 +9°C° 0 mm 1 mps 715 mmHg 86%
    02:00 +9°C° 0 mm 1 mps 715 mmHg 85%
    03:00 +9°C° 0 mm 1 mps 715 mmHg 85%
    04:00 +8°C° 0 mm 1 mps 715 mmHg 85%
    05:00 +8°C° 0 mm 1 mps 715 mmHg 85%
    06:00 +8°C° 0 mm 1 mps 715 mmHg 85%
    07:00 +8°C° 0 mm 1 mps 715 mmHg 85%
    08:00 +10°C° 0 mm 1 mps 716 mmHg 79%
    09:00 +12°C° 0 mm 1 mps 716 mmHg 74%
    10:00 +14°C° 0 mm 1 mps 717 mmHg 68%
    11:00 +14°C° 0 mm 1 mps 717 mmHg 66%
    12:00 +15°C° 0 mm 1 mps 717 mmHg 64%
    13:00 +15°C° 0 mm 2 mps 717 mmHg 63%
    14:00 +15°C° 0 mm 2 mps 717 mmHg 68%
    15:00 +14°C° 0 mm 2 mps 716 mmHg 73%
    16:00 +13°C° 0 mm 2 mps 716 mmHg 78%
    17:00 +13°C° 0 mm 2 mps 717 mmHg 82%
    18:00 +12°C° 0 mm 2 mps 717 mmHg 87%
    19:00 +11°C° 0 mm 1 mps 717 mmHg 91%
    20:00 +10°C° 0.1 mm 1 mps 718 mmHg 92%
    21:00 +10°C° 0.1 mm 1 mps 718 mmHg 92%
    22:00 +10°C° 0.1 mm 1 mps 718 mmHg 93%
    23:00 +8°C° 0.1 mm 2 mps 719 mmHg 93%

    24 January, Wednesday

    Time Temperature Precipitation Wind Pressure Humidity
    00:00 +8°C° 0.1 mm 2 mps 719 mmHg 93%
    01:00 +8°C° 0.1 mm 2 mps 719 mmHg 93%
    02:00 +8°C° 0.1 mm 3 mps 720 mmHg 92%
    03:00 +8°C° 0.1 mm 3 mps 720 mmHg 91%
    04:00 +8°C° 0.1 mm 3 mps 720 mmHg 89%
    05:00 +7°C° 0 mm 3 mps 721 mmHg 89%
    06:00 +7°C° 0 mm 3 mps 721 mmHg 88%
    07:00 +7°C° 0 mm 2 mps 721 mmHg 88%
    08:00 +8°C° 0 mm 2 mps 722 mmHg 83%
    09:00 +9°C° 0 mm 3 mps 723 mmHg 77%
    10:00 +11°C° 0 mm 3 mps 723 mmHg 72%
    11:00 +11°C° 0 mm 3 mps 723 mmHg 70%
    12:00 +12°C° 0 mm 3 mps 724 mmHg 67%
    13:00 +12°C° 0 mm 3 mps 724 mmHg 64%
    14:00 +12°C° 0 mm 3 mps 724 mmHg 67%
    15:00 +11°C° 0 mm 3 mps 723 mmHg 70%
    16:00 +11°C° 0 mm 3 mps 723 mmHg 72%
    17:00 +10°C° 0 mm 2 mps 724 mmHg 77%
    18:00 +9°C° 0 mm 2 mps 724 mmHg 82%
    19:00 +8°C° 0 mm 2 mps 724 mmHg 87%
    20:00 +7°C° 0 mm 2 mps 724 mmHg 88%
    21:00 +7°C° 0 mm 2 mps 725 mmHg 88%
    22:00 +8°C° 0 mm 1 mps 725 mmHg 89%
    23:00 +8°C° 0 mm 1 mps 725 mmHg 89%
    Show more